OPS 8464 (TRANSIT 5B-7)

Satellite information

Favourite Embed

Satellite Type and Status

PAYLOADIN ORBIT

Key statistics

Satellite OPS 8464 (TRANSIT 5B-7) at a glance.

Uptime

21819

Days in orbit

Revolutions

≈ 13.4

Per day

Orbit

LEO

Low Earth Orbit

Inclination

90.0

Latest

Satellite identification and parameters

Extended collection of information and parameters for OPS 8464 (TRANSIT 5B-7).

Object identification

Identified? True

Debris? False

Object name: OPS 8464 (TRANSIT 5B-7)

International designator: 1965-065F

Object number (NORAD): 1514

Object ID (CCSDS): 1514

Country: UNITED STATES OF AMERICA (US)

Current information (Y/N): Y

RCS size: LARGE

Orbital parameters

Period: 107.842 minutes

Inclination: 89.9726 deg

SMA: 7505.006 km

Apoapsis: 1178.889 km

Periapsis: 1074.852 km

RAAN: 228.5373 deg

Eccentricy: 0.0069312

Argument of periapsis: 218.7217 deg

Mean anomaly: 263.7598 deg

Mean motion: 13.35291974 rev/day

Mean motion (dot): 0.00000128 rev/day2

B* drag term: 0.00023252 1/REarth

Two-line elements (TLE)

Creation date: May 9, 2025, 2:46 a.m.

Reference frame: TEME

Reference center: EARTH

Epoch: May 8, 2025, 4:40 p.m. UTC

TLE line 0: 0 OPS 8464 (TRANSIT 5B-7)

TLE line 1: 1 01514U 65065F 25128.69496030 .00000128 00000-0 23252-3 0 9996

TLE line 2: 2 01514 89.9726 228.5373 0069312 218.7217 263.7598 13.35291974907283

Live tracking on map

Real-time ground track for satellite OPS 8464 (TRANSIT 5B-7).

In-orbit conjunctions

There are no conjunctions computed for OPS 8464 (TRANSIT 5B-7), at the moment. Check back to stay up to date, as we update our databases every day.

Go to all conjunctions

Associated space launch

The Transit-O series of satellites that closely followed the design of Transit 5C-1 were also called “Oscars” (Oscar is the phonetic alphabet for “O”, i. e., operational). They were also called NNS (Navy Navigation Satellite) or shortened NavSat.

OPS 8464 (TRANSIT 5B-7) was lifted into orbit during the mission ‘Thor DM-21 Ablestar | Transit-O 5’, on board a Thor DM-21 Ablestar space rocket.

The launch took place on Aug. 13, 1965, 10:11 p.m. from Space Launch Complex 2E.

For more information about the launch, click the button.

Launch to space Thor DM-21 Ablestar | Transit-O 5
Thor DM-21 Ablestar | Transit-O 5

Agency: N/A

Status: Launch Successful

Launch date: Aug. 13, 1965, 10:11 p.m. UTC

Rocket: Thor DM-21 Ablestar

Launch pad: Space Launch Complex 2E

Location: Vandenberg SFB, CA, USA

...

Latest news about this satellite

There are no fresh news available about this satellite. Check back as we update our databases every day.


Newsletter sign-up

Weekly statistics, charts and insights to help you stay on top of the space industry.